When you browse on this site, cookies collect data to enhance your experience and personalize the content and advertising you see.
Visit our Privacy Policy to learn more. By continuing to use the site, you agree to this use of cookies and data.
  • en Suisse
  • Liste des pays
  • À 7 jours
  • Température de l'eau
  • Carte satellitaire
  • Carte météo
  • Widgets météo
  • user-avatar
    Se connecter

    Météo par heure à Melbourne

    Ce jour, 20 Mai, Lundi

    Heure Température Précipitation Vent Pression Humidité
    00:00 +15°C° 0 mm 5 m/s 766 mmHg 54%
    01:00 +15°C° 0 mm 5 m/s 766 mmHg 53%
    02:00 +15°C° 0 mm 5 m/s 766 mmHg 53%
    03:00 +15°C° 0 mm 5 m/s 765 mmHg 53%
    04:00 +15°C° 0 mm 5 m/s 765 mmHg 54%
    05:00 +16°C° 0 mm 6 m/s 765 mmHg 54%
    06:00 +16°C° 0 mm 6 m/s 764 mmHg 54%
    07:00 +16°C° 0 mm 7 m/s 764 mmHg 54%
    08:00 +17°C° 0.1 mm 7 m/s 764 mmHg 54%
    09:00 +17°C° 0.1 mm 7 m/s 764 mmHg 54%
    10:00 +17°C° 0 mm 8 m/s 764 mmHg 60%
    11:00 +18°C° 0.4 mm 8 m/s 763 mmHg 59%
    12:00 +18°C° 0.4 mm 7 m/s 763 mmHg 58%
    13:00 +20°C° 0.4 mm 7 m/s 762 mmHg 57%
    14:00 +20°C° 0 mm 6 m/s 762 mmHg 57%
    15:00 +20°C° 0 mm 6 m/s 762 mmHg 57%
    16:00 +21°C° 0 mm 5 m/s 762 mmHg 57%
    17:00 +20°C° 0.1 mm 5 m/s 762 mmHg 61%
    18:00 +19°C° 0.1 mm 4 m/s 762 mmHg 64%
    19:00 +18°C° 0.1 mm 3 m/s 763 mmHg 68%
    20:00 +17°C° 0 mm 3 m/s 763 mmHg 68%
    21:00 +16°C° 0 mm 3 m/s 763 mmHg 69%
    22:00 +15°C° 0 mm 2 m/s 764 mmHg 70%
    23:00 +15°C° 0 mm 2 m/s 764 mmHg 72%

    Demain, 21 Mai, Mardi

    Heure Température Précipitation Vent Pression Humidité
    00:00 +15°C° 0 mm 2 m/s 764 mmHg 74%
    01:00 +14°C° 0 mm 2 m/s 764 mmHg 76%
    02:00 +14°C° 0 mm 2 m/s 764 mmHg 76%
    03:00 +13°C° 0 mm 2 m/s 764 mmHg 77%
    04:00 +13°C° 0 mm 2 m/s 764 mmHg 78%
    05:00 +13°C° 0 mm 2 m/s 765 mmHg 78%
    06:00 +12°C° 0 mm 3 m/s 765 mmHg 79%
    07:00 +12°C° 0 mm 3 m/s 765 mmHg 79%
    08:00 +13°C° 0 mm 3 m/s 766 mmHg 75%
    09:00 +14°C° 0 mm 3 m/s 766 mmHg 70%
    10:00 +15°C° 0 mm 4 m/s 766 mmHg 66%
    11:00 +17°C° 0 mm 3 m/s 766 mmHg 63%
    12:00 +19°C° 0 mm 3 m/s 766 mmHg 59%
    13:00 +20°C° 0 mm 3 m/s 765 mmHg 56%
    14:00 +19°C° 0 mm 3 m/s 765 mmHg 57%
    15:00 +19°C° 0 mm 3 m/s 765 mmHg 57%
    16:00 +19°C° 0 mm 2 m/s 765 mmHg 58%
    17:00 +18°C° 0 mm 2 m/s 766 mmHg 62%
    18:00 +17°C° 0 mm 2 m/s 766 mmHg 66%
    19:00 +16°C° 0 mm 1 m/s 766 mmHg 71%
    20:00 +16°C° 0 mm 2 m/s 767 mmHg 73%
    21:00 +15°C° 0 mm 2 m/s 767 mmHg 76%
    22:00 +14°C° 0 mm 3 m/s 767 mmHg 78%
    23:00 +13°C° 0 mm 3 m/s 767 mmHg 79%

    Après-demain, 22 Mai, Mercredi

    Heure Température Précipitation Vent Pression Humidité
    00:00 +13°C° 0 mm 3 m/s 768 mmHg 79%
    01:00 +13°C° 0 mm 3 m/s 768 mmHg 79%
    02:00 +13°C° 0 mm 3 m/s 768 mmHg 80%
    03:00 +12°C° 0 mm 3 m/s 768 mmHg 80%
    04:00 +12°C° 0 mm 3 m/s 768 mmHg 81%
    05:00 +12°C° 0 mm 3 m/s 768 mmHg 81%
    06:00 +12°C° 0 mm 3 m/s 769 mmHg 81%
    07:00 +12°C° 0 mm 3 m/s 769 mmHg 81%
    08:00 +14°C° 0 mm 2 m/s 769 mmHg 75%
    09:00 +15°C° 0 mm 2 m/s 770 mmHg 68%
    10:00 +17°C° 0 mm 2 m/s 770 mmHg 62%
    11:00 +18°C° 0 mm 2 m/s 769 mmHg 54%
    12:00 +21°C° 0 mm 1 m/s 769 mmHg 47%
    13:00 +22°C° 0 mm 1 m/s 769 mmHg 40%
    14:00 +22°C° 0 mm 1 m/s 769 mmHg 42%
    15:00 +22°C° 0 mm 1 m/s 769 mmHg 43%
    16:00 +22°C° 0 mm 1 m/s 768 mmHg 45%
    17:00 +20°C° 0 mm 1 m/s 769 mmHg 53%
    18:00 +18°C° 0 mm 1 m/s 769 mmHg 60%
    19:00 +16°C° 0 mm 1 m/s 770 mmHg 68%
    20:00 +15°C° 0 mm 1 m/s 770 mmHg 70%
    21:00 +14°C° 0 mm 1 m/s 770 mmHg 73%
    22:00 +14°C° 0 mm 1 m/s 770 mmHg 75%
    23:00 +14°C° 0 mm 1 m/s 770 mmHg 75%

    23 Mai, Jeudi

    Heure Température Précipitation Vent Pression Humidité
    00:00 +13°C° 0 mm 2 m/s 770 mmHg 75%
    01:00 +13°C° 0 mm 2 m/s 769 mmHg 75%
    02:00 +13°C° 0 mm 2 m/s 769 mmHg 75%
    03:00 +13°C° 0 mm 2 m/s 769 mmHg 75%
    04:00 +13°C° 0 mm 2 m/s 769 mmHg 75%
    05:00 +12°C° 0 mm 3 m/s 769 mmHg 74%
    06:00 +12°C° 0 mm 3 m/s 769 mmHg 73%
    07:00 +12°C° 0 mm 3 m/s 769 mmHg 72%
    08:00 +13°C° 0 mm 4 m/s 768 mmHg 66%
    09:00 +15°C° 0 mm 5 m/s 768 mmHg 60%
    10:00 +17°C° 0 mm 5 m/s 768 mmHg 54%
    11:00 +19°C° 0 mm 5 m/s 767 mmHg 51%
    12:00 +20°C° 0 mm 5 m/s 767 mmHg 49%
    13:00 +21°C° 0 mm 6 m/s 766 mmHg 46%
    14:00 +21°C° 0 mm 5 m/s 765 mmHg 48%
    15:00 +21°C° 0 mm 5 m/s 765 mmHg 50%
    16:00 +21°C° 0 mm 5 m/s 764 mmHg 52%
    17:00 +20°C° 0 mm 4 m/s 765 mmHg 55%
    18:00 +19°C° 0 mm 4 m/s 765 mmHg 58%
    19:00 +18°C° 0 mm 3 m/s 765 mmHg 61%
    20:00 +17°C° 0 mm 3 m/s 765 mmHg 63%
    21:00 +17°C° 0 mm 3 m/s 765 mmHg 65%
    22:00 +16°C° 0 mm 3 m/s 766 mmHg 67%
    23:00 +16°C° 0 mm 3 m/s 765 mmHg 68%

    24 Mai, Vendredi

    Heure Température Précipitation Vent Pression Humidité
    00:00 +15°C° 0 mm 2 m/s 765 mmHg 69%
    01:00 +14°C° 0 mm 2 m/s 765 mmHg 70%
    02:00 +14°C° 0 mm 2 m/s 765 mmHg 70%
    03:00 +14°C° 0 mm 2 m/s 764 mmHg 71%
    04:00 +13°C° 0 mm 2 m/s 764 mmHg 71%
    05:00 +13°C° 0 mm 2 m/s 764 mmHg 69%
    06:00 +13°C° 0 mm 2 m/s 764 mmHg 67%
    07:00 +12°C° 0 mm 3 m/s 765 mmHg 65%
    08:00 +14°C° 0.1 mm 2 m/s 765 mmHg 62%
    09:00 +15°C° 0.1 mm 2 m/s 765 mmHg 59%
    10:00 +16°C° 0.1 mm 2 m/s 764 mmHg 56%
    11:00 +16°C° 0.5 mm 2 m/s 764 mmHg 61%
    12:00 +16°C° 0.5 mm 1 m/s 764 mmHg 66%
    13:00 +15°C° 0.5 mm 1 m/s 763 mmHg 71%
    14:00 +15°C° 0.7 mm 1 m/s 763 mmHg 74%
    15:00 +15°C° 0.7 mm 1 m/s 763 mmHg 77%
    16:00 +15°C° 0.7 mm 2 m/s 762 mmHg 80%
    17:00 +14°C° 0 mm 2 m/s 763 mmHg 82%
    18:00 +14°C° 0 mm 2 m/s 763 mmHg 84%
    19:00 +14°C° 0 mm 2 m/s 763 mmHg 87%
    20:00 +13°C° 0 mm 2 m/s 763 mmHg 87%
    21:00 +12°C° 0 mm 3 m/s 763 mmHg 87%
    22:00 +12°C° 0 mm 3 m/s 763 mmHg 87%
    23:00 +13°C° 0 mm 2 m/s 763 mmHg 87%

    25 Mai, Samedi

    Heure Température Précipitation Vent Pression Humidité
    00:00 +13°C° 0 mm 2 m/s 762 mmHg 88%
    01:00 +13°C° 0 mm 2 m/s 762 mmHg 89%
    02:00 +13°C° 0 mm 2 m/s 762 mmHg 90%
    03:00 +13°C° 0 mm 2 m/s 762 mmHg 91%
    04:00 +13°C° 0 mm 2 m/s 762 mmHg 92%
    05:00 +13°C° 0 mm 2 m/s 762 mmHg 92%
    06:00 +12°C° 0 mm 2 m/s 762 mmHg 92%
    07:00 +12°C° 0 mm 2 m/s 762 mmHg 92%
    08:00 +13°C° 0 mm 2 m/s 762 mmHg 88%
    09:00 +14°C° 0 mm 2 m/s 762 mmHg 84%
    10:00 +15°C° 0 mm 2 m/s 762 mmHg 79%
    11:00 +16°C° 0.1 mm 2 m/s 762 mmHg 73%
    12:00 +17°C° 0.1 mm 3 m/s 761 mmHg 67%
    13:00 +18°C° 0.1 mm 3 m/s 761 mmHg 62%
    14:00 +18°C° 0.1 mm 3 m/s 761 mmHg 62%
    15:00 +17°C° 0.1 mm 3 m/s 760 mmHg 63%
    16:00 +17°C° 0.1 mm 3 m/s 760 mmHg 64%
    17:00 +16°C° 0 mm 3 m/s 760 mmHg 66%
    18:00 +14°C° 0 mm 3 m/s 760 mmHg 69%
    19:00 +13°C° 0 mm 3 m/s 760 mmHg 72%
    20:00 +13°C° 0 mm 4 m/s 760 mmHg 72%
    21:00 +13°C° 0 mm 4 m/s 760 mmHg 72%
    22:00 +13°C° 0 mm 5 m/s 760 mmHg 72%
    23:00 +13°C° 0 mm 5 m/s 759 mmHg 71%
    Voir plus